, AK

(GMT )
Portage Glacier

Weather History for PATO - January, 2014

Change the Weather History Date:

Wednesday, January 22, 2014

  Actual Average Record
Temperature  
Mean Temperature 42 °F -  
Max Temperature 44 °F - - ()
Min Temperature 39 °F - - ()
Degree Days  
Heating Degree Days 24    
Moisture  
Dew Point 37 °F    
Average Humidity 86    
Maximum Humidity 96    
Minimum Humidity 79    
Precipitation  
Precipitation 3.13 in - - ()
Sea Level Pressure  
Sea Level Pressure 29.67 in    
Wind  
Wind Speed 17 mph (ESE)    
Max Wind Speed 32 mph    
Max Gust Speed 67 mph    
Visibility 4 miles    
Events Rain    
Averages and records for this station are not official NWS values.
T = Trace of Precipitation, MM = Missing Value Source: NWS Daily Summary

Daily Weather History Graph

Daily Weather History Graph

Search for Another Location

Airport or City:

Trip Planner

Search our weather history database for the weather conditions in past years. The results will help you decide how hot, cold, wet, or windy it might be!

Date:

Astronomy

Jan. 22, 2014 Rise Set
Actual Time 9:35 AM AKST 4:39 PM AKST
Civil Twilight 8:43 AM AKST 5:31 PM AKST
Nautical Twilight 7:49 AM AKST 6:25 PM AKST
Astronomical Twilight 6:58 AM AKST 7:16 PM AKST
Moon 12:08 AM AKST (1/22) 10:47 AM AKST (1/22)
Length of Visible Light 8h 47m
Length of Day
7h 03m
Waning Gibbous, 64% of the Moon is Illuminated
Jan 22
Waning Gibbous
Jan 23
Last Quarter
Jan 30
New
Feb 6
First Quarter
Feb 14
Full

Hourly Weather History & Observations

Time (AKST) Temp. Windchill Dew Point Humidity Pressure Visibility Wind Dir Wind Speed Gust Speed Precip Events Conditions
12:42 AM 39.0 °F 30.6 °F 36.0 °F 89% 29.77 in 5.0 mi SE 15.0 mph 29.9 mph 0.02 in Rain Light Rain
12:53 AM 39.9 °F 32.5 °F 36.0 °F 86% 29.77 in 6.0 mi SSE 12.7 mph 35.7 mph 0.02 in Rain Light Rain
1:03 AM 39.9 °F 32.5 °F 36.0 °F 86% 29.75 in 8.0 mi SSE 12.7 mph 24.2 mph 0.00 in Rain Light Rain
1:12 AM 39.0 °F 31.0 °F 36.0 °F 89% 29.76 in 7.0 mi SE 13.8 mph 28.8 mph 0.00 in Rain Light Rain
1:53 AM 39.9 °F 31.4 °F 37.0 °F 89% 29.76 in 5.0 mi SE 16.1 mph 28.8 mph 0.02 in Rain Light Rain
2:21 AM 41.0 °F 34.3 °F 37.0 °F 86% 29.75 in 5.0 mi ESE 11.5 mph 25.3 mph 0.02 in Rain Light Rain
3:43 AM 42.1 °F 34.5 °F 37.0 °F 82% 29.74 in 5.0 mi ESE 15.0 mph 29.9 mph 0.04 in Rain Light Rain
3:53 AM 41.0 °F 32.5 °F 37.0 °F 86% 29.73 in 4.0 mi SE 17.3 mph 27.6 mph 0.05 in Rain Light Rain
4:53 AM 41.0 °F 32.2 °F 37.0 °F 86% 29.73 in 4.0 mi ESE 18.4 mph 32.2 mph 0.10 in Rain Rain
5:53 AM 41.0 °F 33.5 °F 37.0 °F 86% 29.72 in 4.0 mi ESE 13.8 mph 33.4 mph 0.13 in Rain Rain
6:53 AM 39.9 °F 31.8 °F 37.0 °F 89% 29.72 in 4.0 mi SE 15.0 mph 26.5 mph 0.12 in Rain Rain
7:53 AM 42.1 °F 34.9 °F 37.0 °F 82% 29.66 in 3.0 mi SE 13.8 mph 36.8 mph 0.17 in Rain Rain
8:22 AM 43.0 °F 33.8 °F 37.9 °F 82% 29.62 in 2.5 mi ESE 23.0 mph 43.7 mph 0.12 in Rain Rain
8:30 AM 42.1 °F 33.3 °F 37.9 °F 85% 29.65 in 3.0 mi ESE 19.6 mph 41.4 mph 0.15 in Rain Heavy Rain
8:41 AM 43.0 °F 34.0 °F 37.9 °F 82% 29.64 in 2.5 mi ESE 21.9 mph 47.2 mph 0.19 in Rain Rain
8:53 AM 44.1 °F 34.0 °F 37.9 °F 79% 29.63 in 2.5 mi ESE 29.9 mph 52.9 mph 0.24 in Rain Rain
9:53 AM 43.0 °F 33.3 °F 37.9 °F 82% 29.63 in 2.5 mi East 25.3 mph 52.9 mph 0.27 in Rain Rain
10:50 AM 42.8 °F 32.5 °F 37.4 °F 81% 29.63 in 1.2 mi East 28.8 mph 58.7 mph 0.33 in Rain Heavy Rain
10:53 AM 43.0 °F 32.5 °F 37.9 °F 82% 29.63 in 1.0 mi ESE 29.9 mph 50.6 mph 0.35 in Rain Heavy Rain
11:53 AM 42.1 °F 31.0 °F 37.0 °F 82% 29.64 in 1.0 mi ESE 32.2 mph 54.1 mph 0.39 in Rain Heavy Rain
12:15 PM 42.1 °F 32.1 °F 37.0 °F 82% 29.65 in 1.2 mi East 25.3 mph 66.7 mph 0.10 in Rain Heavy Rain
12:53 PM 42.1 °F 32.3 °F 36.0 °F 79% 29.64 in 1.8 mi East 24.2 mph 44.9 mph 0.27 in Rain Rain
1:04 PM 41.0 °F 31.9 °F 37.0 °F 86% 29.63 in 2.0 mi ESE 19.6 mph 47.2 mph 0.02 in Rain Light Rain
1:23 PM 41.0 °F 31.1 °F 37.0 °F 86% 29.63 in 1.5 mi ESE 23.0 mph 56.4 mph 0.06 in Rain Rain
1:46 PM 41.0 °F 32.8 °F 36.0 °F 82% 29.64 in 2.0 mi East 16.1 mph 41.4 mph 0.11 in Rain Rain
1:53 PM 42.1 °F 34.2 °F 36.0 °F 79% 29.63 in 2.0 mi ESE 16.1 mph 38.0 mph 0.12 in Rain Light Rain
2:44 PM 42.1 °F 34.9 °F 37.0 °F 82% 29.63 in 4.0 mi ESE 13.8 mph 36.8 mph 0.08 in Rain Light Rain
2:53 PM 42.1 °F 33.3 °F 37.0 °F 82% 29.64 in 4.0 mi ESE 19.6 mph 32.2 mph 0.09 in Rain Rain
3:28 PM 41.0 °F 32.5 °F 37.0 °F 86% 29.63 in 2.5 mi SE 17.3 mph 39.1 mph 0.06 in Rain Rain
3:53 PM 39.9 °F 32.1 °F 37.0 °F 89% 29.66 in 2.5 mi SE 13.8 mph 27.6 mph 0.13 in Rain Rain
4:11 PM 41.0 °F 33.5 °F 37.0 °F 86% 29.65 in 3.0 mi SE 13.8 mph 27.6 mph 0.03 in Rain Rain
4:29 PM 41.0 °F 33.5 °F 37.0 °F 86% 29.67 in 2.0 mi ESE 13.8 mph 31.1 mph 0.06 in Rain Rain
4:43 PM 39.9 °F 31.1 °F 37.0 °F 89% 29.66 in 4.0 mi ESE 17.3 mph 36.8 mph 0.09 in Rain Rain
4:53 PM 39.9 °F 31.4 °F 37.0 °F 89% 29.68 in 4.0 mi SE 16.1 mph 24.2 mph 0.11 in Rain Rain
5:53 PM 39.9 °F 31.8 °F 37.0 °F 89% 29.67 in 5.0 mi SE 15.0 mph 29.9 mph 0.12 in Rain Rain
6:53 PM 39.9 °F 31.8 °F 37.0 °F 89% 29.70 in 5.0 mi SE 15.0 mph 25.3 mph 0.09 in Rain Rain
7:53 PM 39.9 °F 32.1 °F 37.0 °F 89% 29.69 in 6.0 mi SE 13.8 mph 26.5 mph 0.06 in Rain Light Rain
8:43 PM 39.0 °F 31.4 °F 37.0 °F 93% 29.66 in 5.0 mi ESE 12.7 mph 26.5 mph 0.05 in Rain Rain
8:53 PM 39.9 °F 32.9 °F 37.0 °F 89% 29.67 in 5.0 mi ESE 11.5 mph 26.5 mph 0.06 in Rain Light Rain
9:14 PM 39.0 °F 31.4 °F 37.0 °F 93% 29.67 in 6.0 mi SE 12.7 mph 24.2 mph 0.02 in Rain Light Rain
9:53 PM 39.9 °F 34.5 °F 37.0 °F 89% 29.66 in 6.0 mi ESE 8.1 mph 25.3 mph 0.06 in Rain Light Rain
10:34 PM 39.0 °F 31.4 °F 37.9 °F 96% 29.65 in 5.0 mi SE 12.7 mph 20.7 mph 0.04 in Rain Light Rain
10:53 PM 39.0 °F 31.4 °F 37.9 °F 96% 29.65 in 5.0 mi SE 12.7 mph 20.7 mph 0.06 in Rain Light Rain
11:53 PM 39.9 °F 32.5 °F 37.9 °F 93% 29.64 in 4.0 mi SE 12.7 mph 28.8 mph 0.10 in Rain Rain